Date,TemperatureHighF,TemperatureAvgF,TemperatureLowF,DewpointHighF,DewpointAvgF,DewpointLowF,HumidityHigh,HumidityAvg,HumidityLow,PressureMaxIn,PressureMinIn,WindSpeedMaxMPH,WindSpeedAvgMPH,GustSpeedMaxMPH,PrecipitationSumIn
2012-1-1,44,37,29,40,34,26,94,89,79,30.02,29.59,12,5,29,0.01
2012-1-2,29,25,20,26,19,12,88,79,62,30.29,29.94,14,5,21,0.00
2012-1-3,23,19,15,16,11,9,81,71,62,30.43,30.29,9,3,16,0.00
2012-1-4,34,26,19,27,20,12,85,75,66,30.30,29.98,7,3,12,0.00
2012-1-5,43,33,26,34,28,24,94,81,57,30.11,29.79,6,1,11,0.00
2012-1-6,53,45,40,37,35,32,81,69,54,29.80,29.74,6,2,12,0.00
2012-1-7,41,39,34,36,33,30,85,79,73,29.92,29.75,5,2,9,0.00
2012-1-9,41,36,27,29,26,24,90,68,51,30.27,30.01,11,2,13,0.00
2012-1-10,48,38,29,34,30,28,94,76,51,30.14,29.96,6,1,9,0.00
2012-1-11,47,39,29,35,32,28,94,77,56,29.96,29.57,7,1,12,0.05
2012-1-12,38,35,22,37,33,18,96,94,85,29.57,29.38,9,1,11,0.22
2012-1-13,27,23,19,24,19,16,94,87,80,30.06,29.46,9,3,16,0.00
2012-1-14,24,21,19,20,17,15,92,86,82,30.36,30.07,3,1,7,0.00
2012-1-15,25,20,17,17,15,13,88,81,70,30.57,30.36,7,2,12,0.05
2012-1-16,43,32,19,41,27,14,96,83,68,30.41,29.87,7,2,14,0.10
2012-1-17,50,38,23,49,36,17,97,93,78,30.11,29.42,12,3,17,0.50
2012-1-18,24,22,18,18,15,11,83,75,67,30.37,30.10,7,2,15,0.00
2012-1-19,26,18,3,24,12,-1,92,78,63,30.28,29.85,12,4,20,0.00
2012-1-20,16,9,-1,11,4,-4,90,82,65,30.42,30.24,4,1,8,0.00
2012-1-21,24,15,8,13,9,6,91,80,63,30.43,30.23,6,1,7,0.04
2012-1-22,35,23,11,34,21,8,96,91,85,30.39,29.90,9,3,14,0.00
2012-1-23,48,39,30,46,37,25,97,92,80,29.90,29.51,9,4,23,0.45
2012-1-24,31,30,28,26,25,23,85,81,76,30.44,29.90,11,4,18,0.00
2012-1-25,31,29,27,27,24,23,92,83,78,30.48,30.27,3,1,5,0.00
2012-1-26,34,31,27,32,29,24,96,93,89,30.28,29.65,5,1,11,0.24
2012-1-27,39,34,31,33,30,26,97,86,65,30.04,29.62,7,2,12,0.06
2012-1-28,33,30,26,31,24,18,95,79,59,30.15,29.81,17,4,26,0.03
2012-1-29,31,26,20,29,22,15,93,83,66,30.31,29.97,8,2,18,0.01
2012-1-30,40,26,16,34,21,13,91,83,73,30.34,30.02,8,1,12,0.01
2012-1-31,56,49,41,46,40,34,87,73,60,30.02,29.87,10,3,14,0.02
2012-2-1,51,42,36,47,37,32,88,83,76,30.21,29.88,8,2,11,0.00
2012-2-2,38,34,28,32,30,26,93,85,73,30.50,30.20,4,1,8,0.00
2012-2-3,36,31,24,33,28,23,96,89,82,30.60,30.51,3,0,6,0.00
2012-2-4,42,34,28,29,26,23,89,76,54,30.51,30.26,4,0,7,0.01
2012-2-5,41,32,22,32,27,21,94,83,62,30.36,30.26,5,1,7,0.00
2012-2-6,48,35,27,32,28,25,94,77,46,30.29,30.12,7,2,15,0.00
2012-2-7,34,31,24,30,26,17,91,83,72,30.48,30.23,8,1,11,0.00
2012-2-8,34,25,17,18,16,14,93,73,49,30.47,30.33,5,1,10,0.00
2012-2-9,37,28,22,23,20,16,88,72,47,30.34,30.20,9,2,13,0.00
2012-2-10,32,26,12,29,23,9,94,86,80,30.19,29.95,8,2,14,0.00
2012-2-11,19,13,6,12,7,0,88,77,59,30.36,30.07,11,4,16,0.00
2012-2-12,30,22,16,18,14,10,86,72,59,30.33,30.24,11,4,16,0.02
2012-2-13,35,28,21,20,16,11,79,62,43,30.25,30.05,8,2,13,0.03
2012-2-14,32,30,27,29,26,18,93,86,62,30.14,29.96,4,1,7,0.04
2012-2-15,40,34,31,34,30,27,95,84,73,30.28,30.14,5,1,9,0.16
2012-2-16,42,36,31,39,34,28,97,91,78,30.16,30.01,7,2,14,0.22
2012-2-17,42,35,30,29,26,22,87,72,46,30.23,30.03,8,2,18,0.00
2012-2-18,37,31,21,33,24,17,86,74,57,30.32,30.01,10,3,17,0.01
2012-2-19,33,24,18,21,18,15,90,77,56,30.34,30.25,5,1,11,0.00
2012-2-20,39,26,15,25,20,13,93,79,57,30.50,30.23,7,1,11,0.00
2012-2-21,39,35,27,38,32,23,95,87,73,30.22,29.71,10,3,19,0.11
2012-2-22,39,35,31,33,30,27,93,82,64,29.76,29.50,6,2,12,0.01
2012-2-23,40,34,30,32,31,28,95,87,66,29.71,29.51,5,1,8,0.03
2012-2-24,33,31,29,32,30,26,96,93,85,29.85,29.37,7,2,21,0.13
2012-2-25,30,28,26,27,24,20,93,82,71,30.44,29.85,10,4,18,0.03
2012-2-26,36,30,19,26,22,17,91,75,62,30.53,30.21,10,2,19,0.11
2012-2-27,40,34,29,27,24,22,79,67,50,30.57,30.16,16,4,24,0.05
2012-2-28,41,32,20,28,24,18,93,75,57,30.61,30.22,7,2,13,0.02
2012-2-29,44,37,32,42,34,25,96,91,72,30.21,29.55,7,2,17,0.62
2012-3-1,40,36,33,34,32,31,95,86,74,29.97,29.64,7,2,12,0.02
2012-3-2,46,38,33,45,35,31,97,88,74,29.96,29.21,12,3,23,0.37
2012-3-3,36,32,28,32,27,22,91,80,72,29.83,29.33,20,5,28,0.00
2012-3-4,32,28,24,26,22,20,90,81,67,30.01,29.83,6,2,10,0.03
2012-3-5,28,25,20,22,18,13,89,74,59,30.51,30.01,7,2,14,0.01
2012-3-6,58,40,27,38,29,19,80,64,46,30.50,30.13,12,4,18,0.00
2012-3-7,64,56,47,46,37,30,63,50,45,30.19,29.95,15,5,19,0.00
2012-3-8,59,44,30,53,37,23,94,78,63,30.20,29.82,11,4,20,0.24
2012-3-9,35,30,22,26,19,12,81,64,45,30.65,30.19,15,4,21,0.00
2012-3-10,48,35,18,29,20,13,83,57,41,30.66,30.34,10,3,15,0.00
2012-3-11,66,52,40,33,29,26,59,43,25,30.41,30.26,6,2,10,0.00
2012-3-12,62,53,46,56,47,33,96,80,52,30.26,29.83,12,2,14,0.57
2012-3-13,62,53,46,51,42,23,95,71,30,30.18,29.91,10,2,16,0.01
2012-3-14,77,58,37,53,39,24,75,50,32,30.22,30.06,6,2,11,0.00
2012-3-15,77,64,57,65,57,53,90,79,64,30.08,29.96,5,1,14,0.65
2012-3-16,76,62,51,64,58,50,97,85,60,30.17,30.06,6,1,10,0.01
2012-3-17,76,65,52,59,56,51,97,74,50,30.22,30.12,7,2,12,0.01
2012-3-18,72,61,51,61,55,49,96,83,64,30.17,30.08,5,1,7,0.01
2012-3-19,78,64,53,63,57,52,97,80,57,30.16,30.07,7,2,11,0.01
2012-3-20,81,68,55,61,57,54,95,70,46,30.20,30.11,7,1,10,0.00
2012-3-21,85,70,55,61,56,52,90,64,37,30.24,30.11,6,1,10,0.00
2012-3-22,85,66,55,62,56,51,95,74,37,30.19,30.09,4,1,8,0.44
2012-3-23,70,61,54,59,56,53,97,84,65,30.13,29.93,7,1,11,0.51
2012-3-24,57,54,52,55,52,50,97,94,89,29.94,29.85,4,1,11,0.04
2012-3-25,70,57,47,55,48,30,97,75,46,30.15,29.94,8,2,17,0.02
2012-3-26,46,38,31,34,25,19,80,61,40,30.49,30.15,8,2,14,0.00
2012-3-27,54,39,27,35,25,17,79,59,35,30.49,29.92,11,2,17,0.00
2012-3-28,63,57,45,51,43,32,77,61,48,30.04,29.76,14,4,24,0.00
2012-3-29,44,39,34,33,31,29,88,71,63,30.24,30.04,4,1,11,0.00
2012-3-30,38,35,30,36,32,26,95,89,79,30.20,29.88,10,2,22,0.53
2012-3-31,42,37,33,35,33,31,95,85,72,30.11,30.00,4,1,9,0.00
2012-4-1,53,44,37,46,39,34,91,85,75,30.02,29.79,8,1,9,0.00
2012-4-2,55,44,31,39,34,29,95,73,42,30.14,29.94,7,1,11,0.01
2012-4-3,67,47,37,53,41,32,94,81,61,30.14,29.92,4,1,15,0.15
2012-4-4,59,49,35,47,36,28,95,65,34,30.03,29.93,7,1,12,0.00
2012-4-5,48,40,33,32,29,25,85,66,48,30.24,30.01,8,2,13,0.00
2012-4-6,57,41,26,32,26,23,88,59,31,30.40,30.24,7,1,10,0.00
2012-4-7,65,48,30,35,29,23,94,52,22,30.42,30.20,5,1,8,0.00
2012-4-8,58,52,45,44,32,23,91,52,27,30.20,30.09,12,4,20,0.02
2012-4-9,58,47,36,41,30,20,90,57,28,30.10,29.89,13,3,22,0.00
2012-4-10,42,38,34,31,27,23,78,65,51,30.12,29.94,9,2,13,0.02
2012-4-11,51,42,34,33,30,25,87,62,41,30.29,30.10,6,2,12,0.00
2012-4-12,56,42,29,36,30,27,94,68,38,30.35,30.23,5,1,10,0.00
2012-4-13,62,50,32,40,34,30,94,60,32,30.35,30.19,5,1,8,0.00
2012-4-14,64,54,44,55,47,35,93,77,60,30.20,29.95,7,1,10,0.13
2012-4-15,72,62,56,66,58,54,96,87,68,29.97,29.80,6,1,9,1.09
2012-4-16,68,60,45,59,50,37,86,70,56,30.18,29.66,13,4,24,0.02
2012-4-17,55,45,35,38,34,31,84,67,47,30.44,30.19,7,2,10,0.00
2012-4-18,65,49,33,42,38,31,92,68,39,30.41,30.06,9,2,12,0.00
2012-4-19,72,62,50,55,49,40,81,64,51,30.06,29.89,6,1,10,0.00
2012-4-20,71,53,37,54,46,36,94,81,54,29.96,29.71,9,2,14,0.16
2012-4-21,50,41,36,36,33,26,93,74,47,30.12,29.97,7,2,13,0.00
2012-4-22,52,40,30,33,27,20,92,63,32,30.12,30.05,10,2,23,0.00
2012-4-23,56,44,34,27,21,15,71,43,20,30.05,29.71,13,3,17,0.00
2012-4-24,60,49,37,30,24,18,56,39,26,29.77,29.62,15,4,23,0.00
2012-4-25,64,50,34,48,37,30,94,64,36,29.91,29.79,7,1,11,0.04
2012-4-26,54,48,37,50,41,24,94,76,51,30.15,29.70,7,2,14,0.01
2012-4-27,55,41,28,30,25,21,88,55,29,30.33,30.16,6,1,9,0.00
2012-4-28,46,40,35,38,29,22,88,65,53,30.35,30.27,8,2,11,0.01
2012-4-29,62,46,26,30,24,17,94,50,18,30.45,30.28,8,1,12,0.00
2012-4-30,56,48,40,52,42,22,96,82,41,30.31,29.95,5,1,11,0.46
2012-5-1,58,52,48,53,49,46,96,88,77,30.14,30.00,5,1,9,0.02
2012-5-2,82,64,52,68,57,49,95,78,48,30.02,29.88,6,2,16,0.00
2012-5-3,86,73,62,69,63,58,95,74,48,30.03,29.86,7,2,15,0.42
2012-5-4,77,66,60,67,62,57,97,89,64,30.05,29.93,5,1,9,0.09
2012-5-5,70,59,52,58,53,48,91,80,59,30.16,30.00,4,1,9,0.00
2012-5-6,68,59,51,52,44,38,93,61,35,30.18,30.03,5,1,11,0.03
2012-5-7,67,56,49,61,53,44,95,89,74,30.06,29.84,5,1,8,0.11
2012-5-8,71,58,50,57,51,42,95,77,49,29.88,29.82,8,1,10,0.01
2012-5-9,63,52,44,51,47,43,94,81,58,29.93,29.82,5,1,12,0.21
2012-5-10,64,51,37,43,38,34,95,66,33,30.07,29.93,7,1,15,0.01
2012-5-11,75,59,41,46,41,36,84,55,31,30.22,30.08,7,1,9,0.00
2012-5-12,66,60,54,60,52,40,96,77,55,30.26,30.19,3,0,7,0.31
2012-5-13,70,58,49,57,53,48,96,82,58,30.30,30.16,5,0,8,0.10
2012-5-14,77,62,47,56,46,37,97,62,26,30.16,30.04,4,0,9,0.00
2012-5-15,81,65,47,54,48,43,92,58,33,30.06,29.86,7,1,13,0.00
2012-5-16,66,57,47,54,42,35,89,61,38,30.19,29.90,9,1,16,0.04
2012-5-17,68,54,38,47,40,36,96,63,31,30.30,30.18,5,1,9,0.00
2012-5-18,77,60,43,51,45,38,96,62,27,30.24,30.11,6,0,8,0.00
2012-5-19,86,68,48,58,50,42,94,58,29,30.20,30.12,3,0,9,0.00
2012-5-20,89,73,56,61,56,50,85,58,32,30.19,30.02,9,1,9,0.00
2012-5-21,70,63,55,62,57,52,93,80,64,30.07,30.01,7,1,11,0.04
2012-5-22,70,57,50,56,50,46,93,78,49,30.08,29.97,4,1,7,0.00
2012-5-23,79,61,44,57,50,42,97,72,35,30.04,29.89,5,0,9,0.00
2012-5-24,83,71,55,65,60,53,96,72,50,29.97,29.78,7,1,10,0.00
2012-5-25,83,75,61,68,58,50,77,58,32,30.14,29.84,6,2,13,0.00
2012-5-26,73,64,58,61,57,50,93,78,59,30.31,30.12,5,0,10,0.29
2012-5-27,80,69,58,67,60,54,91,74,59,30.18,29.97,8,2,15,0.00
2012-5-28,90,77,63,72,65,61,94,68,44,29.96,29.74,5,1,14,0.01
2012-5-29,80,74,64,65,56,45,84,57,32,29.83,29.71,7,1,12,0.00
2012-5-30,70,61,49,52,48,45,91,64,46,29.93,29.82,5,1,11,0.00
2012-5-31,58,52,47,51,47,42,93,82,70,30.06,29.93,5,1,9,0.12
2012-6-1,53,50,47,52,49,45,100,95,93,29.93,29.61,7,2,11,0.48
2012-6-2,70,57,46,52,46,42,94,70,38,29.78,29.71,10,3,17,0.01
2012-6-3,76,66,58,57,51,46,82,60,36,29.83,29.75,9,3,17,0.00
2012-6-4,70,60,50,55,51,47,94,73,51,29.98,29.82,4,1,9,0.00
2012-6-5,67,57,47,53,49,46,96,75,51,30.09,29.98,7,1,12,0.00
2012-6-6,76,60,44,54,49,43,97,71,33,30.15,30.05,4,1,7,0.00
2012-6-7,80,66,49,58,52,48,96,65,36,30.15,30.06,6,1,9,0.00
2012-6-8,83,69,53,56,52,47,82,57,35,30.11,29.95,6,1,10,0.00
2012-6-9,88,74,62,61,56,50,78,54,35,29.99,29.89,6,1,12,0.00
2012-6-10,90,76,60,64,58,55,87,59,34,30.07,29.96,4,1,8,0.00
2012-6-11,77,70,64,71,64,58,91,82,64,30.00,29.86,7,0,9,0.03
2012-6-12,75,70,59,68,57,47,96,68,41,30.14,29.82,10,2,14,0.07
2012-6-13,73,59,43,51,46,42,94,64,39,30.27,30.14,4,1,15,0.00
2012-6-14,80,64,46,55,49,42,91,62,30,30.29,30.17,8,1,8,0.00
2012-6-15,87,70,52,64,54,47,94,62,32,30.22,30.14,3,0,10,0.00
2012-6-16,87,74,62,69,63,58,92,70,51,30.21,29.96,5,1,10,0.00
2012-6-17,80,71,60,71,64,55,95,82,53,29.96,29.84,4,1,8,0.44
2012-6-18,79,68,56,70,63,55,95,85,67,29.95,29.81,5,1,11,0.55
2012-6-19,92,81,72,75,69,64,85,67,49,30.02,29.90,6,1,15,0.00
2012-6-20,90,80,68,70,66,63,85,65,43,30.11,29.92,7,1,13,0.00
2012-6-21,87,75,64,72,66,62,94,74,55,29.97,29.84,8,1,13,0.02
2012-6-22,81,69,60,65,59,52,96,74,38,30.02,29.95,4,0,7,0.02
2012-6-23,81,68,54,63,58,53,97,73,39,30.09,30.02,3,0,5,0.00
2012-6-24,85,73,64,67,61,56,83,67,45,30.08,29.92,6,1,9,0.00
2012-6-25,73,66,55,63,51,45,85,62,39,30.08,29.96,8,1,16,0.00
2012-6-26,80,64,47,54,49,45,96,64,32,30.13,29.99,5,1,7,0.00
2012-6-27,87,72,53,59,54,51,94,60,29,30.07,29.84,4,1,10,0.00
2012-6-28,98,83,67,76,66,53,75,57,47,29.84,29.70,8,1,11,0.00
2012-6-29,89,77,67,71,66,57,94,70,36,29.89,29.76,3,0,8,0.00
2012-6-30,90,77,65,70,64,60,89,66,43,29.88,29.80,7,1,10,0.00
2012-7-1,92,77,61,70,63,59,95,65,40,30.00,29.88,4,0,8,0.00
2012-7-2,95,79,63,70,65,61,96,67,33,30.05,29.94,3,0,5,0.00
2012-7-3,91,78,71,76,71,67,90,78,60,29.96,29.81,4,0,10,0.00
2012-7-4,99,90,78,73,71,68,81,56,38,29.87,29.81,9,1,11,0.00
2012-7-5,78,77,76,74,72,71,90,86,81,29.94,29.87,3,0,17,0.00
2012-7-11,85,78,58,59,54,51,92,45,32,30.22,30.14,8,1,8,0.00
2012-7-12,88,73,55,61,56,51,96,61,32,30.20,30.10,5,1,8,0.00
2012-7-13,92,78,62,69,63,59,96,64,34,30.16,30.07,4,1,8,0.00
2012-7-14,91,77,62,69,64,60,93,67,41,30.14,30.01,3,1,10,0.00
2012-7-15,92,80,70,71,68,64,90,68,42,30.07,29.94,7,1,12,0.00
2012-7-16,75,69,65,67,65,63,94,87,76,30.02,30.00,1,0,2,0.00
2012-7-18,85,79,70,73,70,68,94,76,61,30.00,29.91,5,1,8,0.07
2012-7-19,77,70,65,70,67,63,95,90,79,30.01,29.92,4,1,12,0.08
2012-7-20,69,63,60,63,60,58,95,91,73,30.09,30.01,3,1,9,0.00
2012-7-30,91,80,61,65,57,-100,93,52,35,30.05,29.91,4,-14,8,0.00
2012-7-31,85,74,63,68,65,61,95,75,52,29.99,29.85,6,1,16,0.00
2012-8-1,84,71,59,63,59,53,95,70,35,29.98,29.90,5,1,8,0.00
2012-8-2,91,75,59,71,64,57,94,71,47,29.95,29.86,3,1,12,0.01
2012-8-3,96,81,66,69,65,60,95,64,31,29.96,29.90,5,1,8,0.00
2012-8-4,91,79,68,74,69,65,94,74,52,29.99,29.79,4,1,10,0.01
2012-8-5,85,75,61,71,63,52,95,70,35,30.15,29.85,6,2,13,0.16
2012-8-6,86,68,51,57,52,48,96,62,29,30.22,30.05,4,1,9,0.00
2012-8-7,90,74,56,63,58,53,94,61,32,30.05,29.92,5,1,10,0.00
2012-8-8,85,74,65,64,59,55,91,63,37,30.00,29.95,9,1,9,0.00
2012-8-9,66,64,60,63,61,59,95,92,81,29.99,29.84,5,0,8,0.50
2012-8-10,60,60,60,59,59,59,96,96,96,29.85,29.79,1,0,3,0.01
2012-8-21,78,71,59,61,55,52,89,59,40,30.14,30.07,3,0,7,0.00
2012-8-22,82,66,52,61,55,50,96,71,40,30.20,30.11,3,0,10,0.00
2012-8-23,86,69,54,62,57,52,96,70,37,30.20,30.11,2,0,5,0.00
2012-8-24,88,70,60,64,60,57,92,72,37,30.16,30.08,3,0,9,0.00
2012-10-3,65,62,59,59,56,54,95,81,72,30.12,30.05,7,1,8,0.01
2012-10-4,76,63,52,59,54,50,93,73,47,30.15,30.03,9,1,11,0.10
2012-10-5,60,51,43,58,47,41,94,85,64,30.12,30.03,6,1,10,0.16
2012-10-6,46,42,37,42,38,35,95,85,69,30.20,30.02,8,1,11,0.00
2012-10-7,45,40,35,39,37,34,95,88,72,30.23,30.17,2,0,4,0.04
2012-10-8,54,41,31,36,32,29,96,73,41,30.30,30.18,6,1,10,0.01
2012-10-9,61,48,36,42,36,31,84,65,44,30.20,29.90,6,1,18,0.00
2012-10-10,51,44,40,41,38,30,95,82,58,30.09,29.85,6,2,17,0.15